2023/01/02 00:00:00,42.1,-0.6
2023/01/02 00:10:00,42.1,-0.3
2023/01/02 00:20:00,42.0,-0.3
2023/01/02 00:30:00,42.1,-0.5
2023/01/02 00:40:00,42.2,-0.4
2023/01/02 00:50:00,42.2,-0.4
2023/01/02 01:00:00,42.3,-0.5
2023/01/02 01:10:00,42.5,-0.5
2023/01/02 01:20:00,42.5,-0.6
2023/01/02 01:30:00,42.5,-0.5
2023/01/02 01:40:00,42.5,-0.5
2023/01/02 01:50:00,42.5,-0.4
2023/01/02 02:00:00,42.5,-0.4
2023/01/02 02:10:00,42.5,-0.4
2023/01/02 02:20:00,42.4,-0.4
2023/01/02 02:30:00,42.4,-0.4
2023/01/02 02:40:00,42.3,-0.6
2023/01/02 02:50:00,42.3,-0.2
2023/01/02 03:00:00,42.3,-0.4
2023/01/02 03:10:00,42.3,-0.4
2023/01/02 03:20:00,42.3,-0.4
2023/01/02 03:30:00,42.3,-0.2
2023/01/02 03:40:00,42.3,-0.2
2023/01/02 03:50:00,42.2,-0.3
2023/01/02 04:00:00,42.3,-0.1
2023/01/02 04:10:00,42.2,-0.2
2023/01/02 04:20:00,42.2,-0.3
2023/01/02 04:30:00,42.2,-0.2
2023/01/02 04:40:00,42.2,-0.2
2023/01/02 04:50:00,42.3,-0.1
2023/01/02 05:00:00,42.5,-0.4
2023/01/02 05:10:00,42.7,-0.6
2023/01/02 05:20:00,42.7,-0.6
2023/01/02 05:30:00,42.9,-0.6
2023/01/02 05:40:00,43.1,-0.8
2023/01/02 05:50:00,43.2,-0.6
2023/01/02 06:00:00,43.5,-0.9
2023/01/02 06:10:00,43.7,-0.6
2023/01/02 06:20:00,44.0,-0.8
2023/01/02 06:30:00,44.2,-0.8
2023/01/02 06:40:00,44.3,-0.9
2023/01/02 06:50:00,44.9,-1.0
2023/01/02 07:00:00,45.5,-1.1
2023/01/02 07:10:00,45.7,-1.1
2023/01/02 07:20:00,45.7,-1.1
2023/01/02 07:30:00,46.0,-0.9
2023/01/02 07:40:00,46.5,-0.9
2023/01/02 07:50:00,46.6,-0.8
2023/01/02 08:00:00,46.7,-0.7
2023/01/02 08:10:00,46.6,-0.4
2023/01/02 08:20:00,46.6,-0.5
2023/01/02 08:30:00,46.9,-0.1
2023/01/02 08:40:00,47.1,-0.2
2023/01/02 08:50:00,47.0,-0.3
2023/01/02 09:00:00,47.1,-0.3
2023/01/02 09:10:00,47.2, 0.1
2023/01/02 09:20:00,47.1, 0.4
2023/01/02 09:30:00,47.1, 0.7
2023/01/02 09:40:00,47.2, 0.6
2023/01/02 09:50:00,47.2, 0.7
2023/01/02 10:00:00,47.1, 0.8
2023/01/02 10:10:00,47.1, 0.5
2023/01/02 10:20:00,47.2, 0.1
2023/01/02 10:30:00,47.4, 0.5
2023/01/02 10:40:00,47.4, 0.8
2023/01/02 10:50:00,47.4, 1.5
2023/01/02 11:00:00,47.4, 1.4
2023/01/02 11:10:00,47.9, 0.7
2023/01/02 11:20:00,48.3, 1.4
2023/01/02 11:30:00,48.3, 1.2
2023/01/02 11:40:00,48.3, 1.3
2023/01/02 11:50:00,48.3, 1.6
2023/01/02 12:00:00,48.6, 1.2
2023/01/02 12:10:00,48.7, 0.7
2023/01/02 12:20:00,48.6, 0.4
2023/01/02 12:30:00,48.6, 0.5
2023/01/02 12:40:00,48.7, 0.7
2023/01/02 12:50:00,48.7, 1.0
2023/01/02 13:00:00,49.5, 0.6
2023/01/02 13:10:00,50.4, 1.1
2023/01/02 13:20:00,50.5, 1.5
2023/01/02 13:30:00,50.5, 1.1
2023/01/02 13:40:00,50.9, 3.0
2023/01/02 13:50:00,50.9, 2.8
2023/01/02 14:00:00,50.8, 3.2
2023/01/02 14:10:00,50.7, 4.5
2023/01/02 14:20:00,50.5, 5.3
2023/01/02 14:30:00,50.4, 4.0
2023/01/02 14:40:00,50.2, 2.0
2023/01/02 14:50:00,50.2, 3.0
2023/01/02 15:00:00,50.1, 8.0
2023/01/02 15:10:00,50.0, 5.6
2023/01/02 15:20:00,50.0, 3.5
2023/01/02 15:30:00,49.9, 1.6
2023/01/02 15:40:00,50.0, 1.1
2023/01/02 15:50:00,50.0, 0.8
2023/01/02 16:00:00,50.0, 0.2
2023/01/02 16:10:00,50.0, 0.0
2023/01/02 16:20:00,49.8, 0.5
2023/01/02 16:30:00,49.8,-0.1
2023/01/02 16:40:00,49.9,-0.5
2023/01/02 16:50:00,49.9,-0.5
2023/01/02 17:00:00,49.8,-0.9
2023/01/02 17:10:00,50.0,-0.8
2023/01/02 17:20:00,50.4,-1.1
2023/01/02 17:30:00,50.7,-1.1
2023/01/02 17:40:00,50.9,-1.1
2023/01/02 17:50:00,51.0,-1.1
2023/01/02 18:00:00,51.2,-1.3
2023/01/02 18:10:00,51.2,-1.2
2023/01/02 18:20:00,51.2,-1.1
2023/01/02 18:30:00,51.1,-1.4
2023/01/02 18:40:00,51.1,-1.2
2023/01/02 18:50:00,51.3,-1.2
2023/01/02 19:00:00,51.3,-1.3
2023/01/02 19:10:00,51.3,-1.4
2023/01/02 19:20:00,51.5,-1.4
2023/01/02 19:30:00,51.9,-1.3
2023/01/02 19:40:00,52.2,-1.5
2023/01/02 19:50:00,52.3,-1.7
2023/01/02 20:00:00,52.7,-1.5
2023/01/02 20:10:00,53.1,-1.6
2023/01/02 20:20:00,53.3,-1.8
2023/01/02 20:30:00,53.5,-1.2
2023/01/02 20:40:00,53.5,-1.5
2023/01/02 20:50:00,53.8,-1.6
2023/01/02 21:00:00,53.8,-1.5
2023/01/02 21:10:00,54.0,-1.6
2023/01/02 21:20:00,54.1,-1.5
2023/01/02 21:30:00,54.3,-1.4
2023/01/02 21:40:00,54.4,-1.6
2023/01/02 21:50:00,54.5,-1.4
2023/01/02 22:00:00,54.5,-1.5
2023/01/02 22:10:00,54.7,-1.6
2023/01/02 22:20:00,54.6,-1.6
2023/01/02 22:30:00,54.6,-1.6
2023/01/02 22:40:00,54.6,-1.6
2023/01/02 22:50:00,54.5,-1.7
2023/01/02 23:00:00,54.9,-1.6
2023/01/02 23:10:00,55.1,-1.7
2023/01/02 23:20:00,55.3,-1.7
2023/01/02 23:30:00,55.3,-2.0
2023/01/02 23:40:00,55.2,-1.6
2023/01/02 23:50:00,55.2,-1.7
